Back to catalog

CZ-6A DEB

AliveSSO
NORAD 54557·DEBRIS·🇨🇳 China

Launched Nov 11, 2022 from Taiyuan Satellite Launch Center

Loading…

Next Passes (next 24 hours)

TLE

FreshSource: Space-Track

Epoch: Sep 14, 2026, 01:35 UTC

1 54557U 22151LH  26257.06630509  .00000506  00000-0  13403-3 0  9993
2 54557  98.5704 310.8589 0132117  28.0223 332.8001 14.48210423202355

Track CZ-6A DEB in real time with AllMySat

Download on the App Store